ELY552 LBSF-LLBG

Flight info

Callsign ELY552
Flight time N/A
Altitude 35000
Route OMENO3T/27 OMENO DCT RODIP UN131 PIBOM DCT BELGI UN131 KULAR UT39 TOMBI DCT IDAKU L35 PIKOG L609 ZUKKO
Aircraft B738/M-SDE2E3FGHIRWXY/LB1

Departure

Time 2026-04-30 12:11
Airport Sofia Airport (LBSF)

Arrival

Time N/A
Airport Ben Gurion International Airport (LLBG)
Time Latitude Longitude Altitude Speed Heading
2026-04-30 11:48 42.69108 23.41288 1745 ft 0 kts 72°
2026-04-30 11:59 42.69107 23.41284 1743 ft 3 kts 71°
2026-04-30 11:59 42.69095 23.41252 1742 ft 4 kts 44°
2026-04-30 11:59 42.69074 23.41231 1745 ft 3 kts 30°
2026-04-30 11:59 42.69068 23.41226 1747 ft 0 kts 30°
2026-04-30 12:01 42.69068 23.41224 1752 ft 0 kts 342°
2026-04-30 12:05 42.69134 23.41193 1747 ft 20 kts 341°
2026-04-30 12:06 42.69278 23.41159 1752 ft 19 kts 17°
2026-04-30 12:06 42.69389 23.41204 1752 ft 15 kts 11°
2026-04-30 12:06 42.69469 23.41235 1746 ft 10 kts 42°
2026-04-30 12:06 42.69486 23.41355 1752 ft 20 kts 96°
2026-04-30 12:07 42.69469 23.41558 1752 ft 23 kts 98°
2026-04-30 12:07 42.69453 23.41837 1752 ft 34 kts 94°
2026-04-30 12:07 42.69436 23.42197 1749 ft 42 kts 93°
2026-04-30 12:07 42.69407 23.42604 1748 ft 40 kts 94°
2026-04-30 12:08 42.69392 23.42874 1743 ft 24 kts 96°
2026-04-30 12:08 42.69379 23.43094 1744 ft 23 kts 94°
2026-04-30 12:08 42.69366 23.43317 1752 ft 28 kts 96°
2026-04-30 12:08 42.69347 23.43615 1748 ft 32 kts 94°
2026-04-30 12:09 42.69333 23.43876 1806 ft 21 kts 88°
2026-04-30 12:09 42.69396 23.43950 1809 ft 11 kts
2026-04-30 12:09 42.69460 23.43955 1808 ft 10 kts
2026-04-30 12:09 42.69517 23.43913 1805 ft 9 kts 292°
2026-04-30 12:10 42.69529 23.43749 1802 ft 44 kts 274°
2026-04-30 12:10 42.69595 23.42889 1743 ft 132 kts 276°
2026-04-30 12:10 42.69699 23.41364 2148 ft 173 kts 277°
2026-04-30 12:10 42.69806 23.39556 2307 ft 219 kts 277°
2026-04-30 12:11 42.69974 23.37415 2630 ft 237 kts 279°
2026-04-30 12:11 42.70224 23.35417 3805 ft 199 kts 294°
2026-04-30 12:11 42.71134 23.34064 4496 ft 210 kts 338°
2026-04-30 12:11 42.72568 23.33941 5293 ft 215 kts
2026-04-30 12:12 42.74101 23.34156 6076 ft 221 kts
2026-04-30 12:12 42.75648 23.34214 7016 ft 227 kts 359°
2026-04-30 12:12 42.77218 23.34146 7928 ft 231 kts 354°
2026-04-30 12:12 42.78849 23.33972 8773 ft 240 kts 352°
2026-04-30 12:13 42.80547 23.33726 9699 ft 245 kts 350°
2026-04-30 12:13 42.82234 23.33452 10558 ft 250 kts 348°
2026-04-30 12:13 42.84003 23.33151 11422 ft 255 kts 348°
2026-04-30 12:13 42.85768 23.33001 12310 ft 266 kts
2026-04-30 12:14 42.87522 23.33946 13207 ft 283 kts 33°
2026-04-30 12:14 42.88752 23.36085 14071 ft 296 kts 68°
2026-04-30 12:14 42.89001 23.38846 14873 ft 297 kts 103°
2026-04-30 12:14 42.88186 23.41375 15690 ft 290 kts 137°
2026-04-30 12:15 42.86642 23.43047 16584 ft 282 kts 156°
2026-04-30 12:15 42.84951 23.44425 17452 ft 286 kts 158°
2026-04-30 12:15 42.83215 23.45803 18327 ft 291 kts 158°
2026-04-30 12:15 42.81460 23.47227 19127 ft 296 kts 157°
2026-04-30 12:16 42.79696 23.48698 19870 ft 302 kts 157°
2026-04-30 12:16 42.77836 23.50077 20645 ft 304 kts 163°
2026-04-30 12:16 42.75936 23.51372 21413 ft 309 kts 162°
2026-04-30 12:16 42.74015 23.52745 22161 ft 316 kts 161°
2026-04-30 12:17 42.70123 23.55814 23662 ft 329 kts 159°